EW1362 Weather Reports


time (UTC)temp
C
wind
direction
speed
KPH
gust
KPH
rain 1hr
cm
rain 24hr
cm
rain mn
cm
humidity
%
barometer
mb
20260906073302 22 47 4.8 17.7 0.00 0.00 0.00 92 1014.7
20260906072828 22 37 3.2 17.7 0.00 0.00 0.00 92 1014.7
20260906072309 22 43 4.8 17.7 0.00 0.00 0.00 92 1014.6
20260906071817 22 40 6.4 17.7 0.00 0.00 0.00 92 1014.7
20260906071258 22 32 4.8 14.5 0.00 0.00 0.00 92 1014.7
20260906070807 22 46 6.4 17.7 0.00 0.00 0.00 92 1014.7
20260906070308 22 64 3.2 19.3 0.00 0.00 0.00 92 1014.7
20260906065835 22 55 9.7 19.3 0.00 0.00 0.00 93 1014.6
20260906065313 22 61 6.4 17.7 0.00 0.00 0.00 93 1014.6
20260906064813 22 55 3.2 12.9 0.00 0.00 0.00 93 1014.6
20260906064314 22 50 4.8 12.9 0.00 0.00 0.00 93 1014.6
20260906063756 22 39 4.8 14.5 0.00 0.00 0.00 93 1014.6
20260906063338 22 46 6.4 14.5 0.00 0.00 0.00 93 1014.7
20260906062757 22 48 4.8 12.9 0.00 0.00 0.00 93 1014.7
20260906062314 22 42 4.8 12.9 0.00 0.00 0.00 93 1014.7
20260906061812 22 42 4.8 12.9 0.00 0.00 0.00 92 1014.7
20260906061313 22 56 4.8 12.9 0.00 0.00 0.00 92 1014.7
20260906060814 23 50 4.8 9.7 0.00 0.00 0.00 92 1014.6
20260906060316 23 49 4.8 9.7 0.00 0.00 0.00 92 1014.7
20260906055802 23 47 4.8 12.9 0.00 0.00 0.00 92 1014.6
20260906055320 23 48 6.4 12.9 0.00 0.00 0.00 92 1014.6
20260906054758 23 48 4.8 14.5 0.00 0.00 0.00 92 1014.6
20260906054318 23 52 8.0 14.5 0.00 0.00 0.00 92 1014.6
20260906053758 23 48 6.4 12.9 0.00 0.00 0.00 92 1014.6
20260906053258 23 40 4.8 12.9 0.00 0.00 0.00 92 1014.5
20260906052806 23 46 4.8 14.5 0.00 0.00 0.00 92 1014.6
20260906052320 23 48 6.4 14.5 0.00 0.00 0.00 92 1014.6
20260906051757 23 35 4.8 16.1 0.00 0.00 0.00 91 1014.5
20260906051317 23 32 8.0 16.1 0.00 0.00 0.00 91 1014.5
20260906050756 23 49 6.4 12.9 0.00 0.00 0.00 91 1014.4
20260906050318 23 49 4.8 12.9 0.00 0.00 0.00 91 1014.3
20260906045819 23 42 3.2 8.0 0.00 0.00 0.00 91 1014.3
20260906045320 23 43 4.8 9.7 0.00 0.00 0.00 91 1014.2
20260906044800 23 42 4.8 9.7 0.00 0.00 0.00 91 1014.3
20260906044300 23 45 3.2 9.7 0.00 0.00 0.00 91 1014.2
20260906043804 23 35 4.8 9.7 0.00 0.00 0.00 91 1014.2
20260906043302 23 48 4.8 12.9 0.00 0.00 0.00 91 1014.2
20260906042810 23 46 4.8 9.7 0.00 0.00 0.00 90 1014.1
20260906042307 23 46 4.8 9.7 0.00 0.00 0.00 90 1014.1
20260906041811 24 45 4.8 8.0 0.00 0.00 0.00 90 1014.1
20260906041346 24 44 3.2 8.0 0.00 0.00 0.00 90 1014.1
20260906040754 24 41 4.8 8.0 0.00 0.00 0.00 90 1014.0
20260906040255 24 37 6.4 8.0 0.00 0.00 0.00 90 1014.0
20260906035814 24 46 1.6 14.5 0.00 0.00 0.00 90 1014.0
20260906035343 24 45 6.4 14.5 0.00 0.00 0.00 90 1013.9
20260906034804 24 43 4.8 9.7 0.00 0.00 0.00 90 1013.9
20260906034322 24 43 3.2 9.7 0.00 0.00 0.00 90 1013.9
20260906033821 24 41 3.2 14.5 0.00 0.00 0.00 89 1013.8
20260906033321 24 31 6.4 14.5 0.00 0.00 0.00 89 1013.8
20260906032806 24 40 3.2 14.5 0.00 0.00 0.00 89 1013.9
20260906032313 24 38 6.4 14.5 0.00 0.00 0.00 89 1013.8
20260906031813 24 44 3.2 9.7 0.00 0.00 0.00 88 1013.9
20260906031314 24 50 3.2 9.7 0.00 0.00 0.00 88 1013.9
20260906030756 25 41 4.8 12.9 0.00 0.00 0.00 88 1013.8
20260906030317 25 44 6.4 16.1 0.00 0.00 0.00 87 1013.8
20260906025819 25 44 3.2 9.7 0.00 0.00 0.00 86 1013.9
20260906025317 25 44 3.2 9.7 0.00 0.00 0.00 86 1013.9
20260906024825 25 43 1.6 9.7 0.00 0.00 0.00 85 1013.8
20260906024307 25 42 3.2 14.5 0.00 0.00 0.00 84 1013.8
20260906023809 25 41 3.2 14.5 0.00 0.00 0.00 83 1013.8
20260906023310 25 40 1.6 12.9 0.00 0.00 0.00 82 1013.8
20260906022810 25 49 4.8 16.1 0.00 0.00 0.00 82 1013.7
20260906022312 26 40 4.8 16.1 0.00 0.00 0.00 80 1013.7
20260906021755 26 52 6.4 14.5 0.00 0.00 0.00 80 1013.5
20260906021319 26 45 3.2 14.5 0.00 0.00 0.00 78 1013.4
20260906020801 26 46 8.0 14.5 0.00 0.00 0.00 78 1013.5
20260906020331 26 50 6.4 12.9 0.00 0.00 0.00 77 1013.5
20260906015811 26 46 0.0 8.0 0.00 0.00 0.00 77 1013.4
20260906015307 26 46 4.8 8.0 0.00 0.00 0.00 77 1013.3
20260906014817 26 46 4.8 6.4 0.00 0.00 0.00 77 1013.2
20260906014257 26 46 3.2 8.0 0.00 0.00 0.00 77 1013.2
20260906013807 26 46 3.2 8.0 0.00 0.00 0.00 77 1013.1
20260906013310 26 48 1.6 6.4 0.00 0.00 0.00 77 1013.0
20260906012813 26 48 1.6 6.4 0.00 0.00 0.00 77 1012.9
20260906012314 27 49 1.6 6.4 0.00 0.00 0.00 77 1012.7
20260906011755 27 49 3.2 6.4 0.00 0.00 0.00 77 1012.7
20260906011316 27 49 0.0 4.8 0.00 0.00 0.00 77 1012.7
20260906010818 27 49 1.6 6.4 0.00 0.00 0.00 77 1012.7
20260906010303 27 49 3.2 8.0 0.00 0.00 0.00 76 1012.4
20260906005812 27 49 3.2 9.7 0.00 0.00 0.00 76 1012.4
20260906005314 27 49 3.2 9.7 0.00 0.00 0.00 75 1012.5
20260906004755 27 50 3.2 12.9 0.00 0.00 0.00 74 1012.3
20260906004255 27 51 6.4 12.9 0.00 0.00 0.00 73 1012.2
20260906003803 28 50 1.6 14.5 0.00 0.00 0.00 73 1012.1
20260906003325 28 47 6.4 19.3 0.00 0.00 0.00 72 1012.1
20260906002814 29 47 3.2 14.5 0.00 0.00 0.00 71 1012.0
20260906002255 29 50 8.0 14.5 0.00 0.00 0.00 71 1011.9
20260906001804 30 4 0.0 0.0 0.00 0.00 0.00 74 1011.9
20260906001306 30 4 0.0 0.0 0.00 0.00 0.00 73 1011.8
20260906000807 30 4 0.0 0.0 0.00 0.00 0.00 73 1011.8
20260906000311 30 4 0.0 0.0 0.00 0.00 0.00 72 1011.9
20260905235812 30 4 0.0 0.0 0.00 0.00 0.00 71 1011.9
20260905235315 30 4 0.0 1.6 0.00 0.00 0.00 71 1012.0
20260905234757 30 4 0.0 3.2 0.00 0.00 0.00 71 1012.0
20260905234320 30 4 0.0 3.2 0.00 0.00 0.00 70 1012.0
20260905233800 30 4 0.0 4.8 0.00 0.00 0.00 71 1012.1
20260905233301 30 4 0.0 4.8 0.00 0.00 0.00 71 1012.1
20260905232810 30 2 1.6 4.8 0.00 0.00 0.00 70 1012.1
20260905232309 31 359 0.0 4.8 0.00 0.00 0.00 70 1012.1
20260905231757 31 358 0.0 9.7 0.00 0.00 0.00 70 1012.2
20260905231300 31 348 1.6 9.7 0.00 0.00 0.00 69 1012.2
20260905230806 31 321 0.0 6.4 0.00 0.00 0.00 69 1012.0
20260905230328 31 335 1.6 6.4 0.00 0.00 0.00 68 1012.1
20260905225809 31 48 0.0 6.4 0.00 0.00 0.00 68 1012.1
20260905225315 31 51 0.0 6.4 0.00 0.00 0.00 67 1012.0
20260905224756 31 52 0.0 6.4 0.00 0.00 0.00 67 1011.8
20260905224317 31 52 1.6 6.4 0.00 0.00 0.00 67 1012.0
20260905223756 31 52 1.6 6.4 0.00 0.00 0.00 67 1011.7
20260905223322 31 57 3.2 6.4 0.00 0.00 0.00 68 1011.7
20260905222833 31 302 1.6 8.0 0.00 0.00 0.00 67 1011.5
20260905222307 31 302 3.2 8.0 0.00 0.00 0.00 66 1011.6
20260905221816 31 196 1.6 3.2 0.00 0.00 0.00 66 1011.8
20260905221318 31 237 0.0 0.0 0.00 0.00 0.00 66 1011.9
20260905220757 31 237 0.0 0.0 0.00 0.00 0.00 66 1011.7
20260905220301 31 237 0.0 0.0 0.00 0.00 0.00 65 1011.4
20260905215815 31 237 0.0 0.0 0.00 0.00 0.00 65 1011.3
20260905215314 31 237 0.0 0.0 0.00 0.00 0.00 65 1011.4
20260905214814 31 237 0.0 0.0 0.00 0.00 0.00 65 1011.6
20260905214319 31 237 0.0 0.0 0.00 0.00 0.00 65 1011.6
20260905213819 31 237 0.0 0.0 0.00 0.00 0.00 65 1011.7
20260905213324 31 237 0.0 0.0 0.00 0.00 0.00 64 1011.8
20260905212756 31 237 0.0 0.0 0.00 0.00 0.00 64 1011.6
20260905212256 31 237 0.0 0.0 0.00 0.00 0.00 65 1011.9
20260905211802 31 237 0.0 0.0 0.00 0.00 0.00 65 1011.7
20260905211323 31 237 0.0 0.0 0.00 0.00 0.00 66 1011.6
20260905210827 32 237 0.0 0.0 0.00 0.00 0.00 63 1012.0
20260905210317 32 237 0.0 3.2 0.00 0.00 0.00 63 1012.0
20260905205817 32 237 0.0 6.4 0.00 0.00 0.00 62 1012.0
20260905205256 32 237 0.0 11.3 0.00 0.00 0.00 61 1012.1
20260905204802 32 238 4.8 11.3 0.00 0.00 0.00 60 1012.1
20260905204302 32 58 1.6 8.0 0.00 0.00 0.00 62 1012.0
20260905203821 32 163 0.0 6.4 0.00 0.00 0.00 61 1012.2
20260905203314 33 52 1.6 8.0 0.00 0.00 0.00 60 1012.2
20260905202814 33 35 3.2 8.0 0.00 0.00 0.00 59 1012.3
20260905202317 33 246 3.2 8.0 0.00 0.00 0.00 59 1012.4
20260905201818 33 40 0.0 0.0 0.00 0.00 0.00 61 1012.3
20260905201340 32 40 0.0 0.0 0.00 0.00 0.00 61 1012.4
20260905200759 32 38 0.0 6.4 0.00 0.00 0.00 60 1012.4
20260905200301 32 38 1.6 8.0 0.00 0.00 0.00 58 1012.3
20260905195812 33 37 3.2 9.7 0.00 0.00 0.00 58 1012.4
20260905195315 33 232 1.6 16.1 0.00 0.00 0.00 59 1012.5
20260905194814 32 202 4.8 16.1 0.00 0.00 0.00 59 1012.6
20260905194332 33 217 3.2 8.0 0.00 0.00 0.00 57 1012.6
20260905193906 33 45 0.0 8.0 0.00 0.00 0.00 61 1012.6
20260905193401 32 52 4.8 8.0 0.00 0.00 0.00 58 1012.6
20260905192758 33 224 3.2 8.0 0.00 0.00 0.00 57 1012.7
20260905192306 33 230 3.2 14.5 0.00 0.00 0.00 58 1012.8
20260905191804 32 197 4.8 11.3 0.00 0.00 0.00 60 1012.9
20260905191259 33 214 1.6 9.7 0.00 0.00 0.00 57 1013.0
20260905190804 32 216 3.2 9.7 0.00 0.00 0.00 59 1013.0
20260905190303 32 55 0.0 12.9 0.00 0.00 0.00 58 1013.1
20260905185800 32 60 3.2 12.9 0.00 0.00 0.00 61 1013.2
20260905185256 32 232 1.6 8.0 0.00 0.00 0.00 60 1013.2
20260905184801 32 223 1.6 12.9 0.00 0.00 0.00 58 1013.3
20260905184321 32 227 6.4 14.5 0.00 0.00 0.00 60 1013.3
20260905183802 32 196 3.2 14.5 0.00 0.00 0.00 59 1013.4
20260905183322 32 208 8.0 12.9 0.00 0.00 0.00 61 1013.4
20260905182801 32 217 4.8 12.9 0.00 0.00 0.00 58 1013.4
20260905182341 32 200 3.2 14.5 0.00 0.00 0.00 61 1013.4
20260905181820 31 205 3.2 14.5 0.00 0.00 0.00 60 1013.7
20260905181301 31 91 4.8 12.9 0.00 0.00 0.00 61 1013.7
20260905180811 31 194 6.4 12.9 0.00 0.00 0.00 60 1013.7
20260905180312 31 199 1.6 11.3 0.00 0.00 0.00 58 1013.7
20260905175829 31 197 6.4 11.3 0.00 0.00 0.00 62 1013.8
20260905175309 31 198 4.8 11.3 0.00 0.00 0.00 61 1013.7
20260905174816 31 201 4.8 12.9 0.00 0.00 0.00 62 1013.8
20260905174315 30 191 3.2 12.9 0.00 0.00 0.00 62 1013.9
20260905173818 30 192 8.0 12.9 0.00 0.00 0.00 62 1013.9
20260905173318 30 187 3.2 12.9 0.00 0.00 0.00 63 1014.0
20260905172757 30 202 8.0 16.1 0.00 0.00 0.00 62 1014.1
20260905172318 30 187 6.4 16.1 0.00 0.00 0.00 62 1014.1
20260905171755 30 200 9.7 16.1 0.00 0.00 0.00 62 1014.2
20260905171339 30 192 8.0 16.1 0.00 0.00 0.00 61 1014.2
20260905170758 30 198 9.7 14.5 0.00 0.00 0.00 62 1014.3
20260905170310 30 202 8.0 14.5 0.00 0.00 0.00 61 1014.4
20260905165759 30 194 6.4 16.1 0.00 0.00 0.00 62 1014.5
20260905165311 30 202 6.4 16.1 0.00 0.00 0.00 62 1014.6
20260905164805 29 195 4.8 14.5 0.00 0.00 0.00 63 1014.6
20260905164306 28 189 9.7 14.5 0.00 0.00 0.00 63 1014.7
20260905163809 29 185 3.2 14.5 0.00 0.00 0.00 62 1014.8
20260905163258 29 192 6.4 12.9 0.00 0.00 0.00 62 1014.7
20260905162806 29 201 3.2 11.3 0.00 0.00 0.00 65 1014.8
20260905162314 28 200 1.6 11.3 0.00 0.00 0.00 63 1014.8
20260905161755 28 199 4.8 14.5 0.00 0.00 0.00 65 1014.9
20260905161316 28 202 6.4 14.5 0.00 0.00 0.00 65 1014.9
20260905160756 28 175 8.0 14.5 0.00 0.00 0.00 66 1014.9
20260905160338 27 193 4.8 14.5 0.00 0.00 0.00 65 1014.8
20260905155758 27 189 6.4 17.7 0.00 0.00 0.00 65 1014.8
20260905155317 27 196 6.4 17.7 0.00 0.00 0.00 66 1014.7
20260905154817 27 188 6.4 17.7 0.00 0.00 0.00 67 1014.7
20260905154318 27 194 6.4 12.9 0.00 0.00 0.00 67 1014.8
20260905153758 27 186 0.0 17.7 0.00 0.00 0.00 68 1014.9
20260905153301 27 194 6.4 17.7 0.00 0.00 0.00 68 1014.9
20260905152830 27 193 8.0 14.5 0.00 0.00 0.00 69 1014.9
20260905152258 26 190 8.0 16.1 0.00 0.00 0.00 68 1015.0
20260905151806 26 189 9.7 17.7 0.00 0.00 0.00 68 1015.0
20260905151313 26 199 8.0 14.5 0.00 0.00 0.00 70 1015.0
20260905150814 26 192 3.2 16.1 0.00 0.00 0.00 70 1015.1
20260905150317 26 208 4.8 20.9 0.00 0.00 0.00 70 1015.1
20260905145819 26 194 9.7 20.9 0.00 0.00 0.00 70 1015.1
20260905145334 26 192 4.8 14.5 0.00 0.00 0.00 71 1015.1
20260905144802 26 194 6.4 16.1 0.00 0.00 0.00 71 1015.1
20260905144302 25 189 4.8 16.1 0.00 0.00 0.00 71 1015.1
20260905143810 25 186 4.8 14.5 0.00 0.00 0.00 72 1015.2
20260905143310 25 188 3.2 16.1 0.00 0.00 0.00 72 1015.3
20260905142813 25 185 4.8 16.1 0.00 0.00 0.00 72 1015.3
20260905142315 25 180 0.0 17.7 0.00 0.00 0.00 74 1015.3
20260905141816 25 193 3.2 14.5 0.00 0.00 0.00 74 1015.4
20260905141258 25 191 4.8 16.1 0.00 0.00 0.00 74 1015.4
20260905140804 25 181 3.2 17.7 0.00 0.00 0.00 75 1015.3
20260905140312 24 191 3.2 17.7 0.00 0.00 0.00 76 1015.3
20260905135813 24 162 3.2 14.5 0.00 0.00 0.00 76 1015.4
20260905135255 24 169 3.2 16.1 0.00 0.00 0.00 77 1015.4
20260905134805 24 188 3.2 11.3 0.00 0.00 0.00 77 1015.4
20260905134305 23 194 4.8 20.9 0.00 0.00 0.00 78 1015.5
20260905133808 23 183 6.4 20.9 0.00 0.00 0.00 78 1015.4
20260905133308 23 181 4.8 16.1 0.00 0.00 0.00 79 1015.3
20260905132817 23 189 4.8 12.9 0.00 0.00 0.00 79 1015.3
20260905132321 23 185 1.6 12.9 0.00 0.00 0.00 79 1015.3
20260905131802 23 193 3.2 12.9 0.00 0.00 0.00 81 1015.5
20260905131307 23 194 1.6 12.9 0.00 0.00 0.00 81 1015.6
20260905130810 23 189 0.0 4.8 0.00 0.00 0.00 82 1015.6
20260905130313 22 187 0.0 11.3 0.00 0.00 0.00 83 1015.5
20260905125755 22 187 1.6 11.3 0.00 0.00 0.00 84 1015.6
20260905125317 22 185 1.6 11.3 0.00 0.00 0.00 83 1015.5
20260905124800 22 177 0.0 3.2 0.00 0.00 0.00 84 1015.5
20260905124323 22 177 0.0 1.6 0.00 0.00 0.00 85 1015.6
20260905123807 22 177 0.0 1.6 0.00 0.00 0.00 85 1015.5
20260905123329 22 177 0.0 1.6 0.00 0.00 0.00 85 1015.6
20260905122755 22 177 0.0 0.0 0.00 0.00 0.00 85 1015.6
20260905122316 22 177 0.0 6.4 0.00 0.00 0.00 85 1015.6
20260905121758 22 177 1.6 6.4 0.00 0.00 0.00 85 1015.7
20260905121321 22 177 1.6 4.8 0.00 0.00 0.00 85 1015.6
20260905120823 22 77 0.0 1.6 0.00 0.00 0.00 86 1015.7
20260905120343 22 77 0.0 4.8 0.00 0.00 0.00 85 1015.8
20260905115803 22 79 0.0 9.7 0.00 0.00 0.00 85 1015.6
20260905115312 22 212 1.6 8.0 0.00 0.00 0.00 85 1015.4
20260905114814 22 214 0.0 4.8 0.00 0.00 0.00 85 1015.3
20260905114255 22 214 1.6 9.7 0.00 0.00 0.00 84 1015.3
20260905113804 22 43 1.6 9.7 0.00 0.00 0.00 84 1015.2
20260905113303 22 37 1.6 4.8 0.00 0.00 0.00 84 1015.2
20260905112838 22 44 1.6 9.7 0.00 0.00 0.00 84 1015.1
20260905112258 22 68 1.6 9.7 0.00 0.00 0.00 85 1014.9
20260905111804 22 46 3.2 16.1 0.00 0.00 0.00 85 1015.1
20260905111303 23 35 3.2 16.1 0.00 0.00 0.00 88 1015.2
20260905110831 23 62 3.2 17.7 0.00 0.00 0.00 92 1015.1
20260905110317 23 17 4.8 17.7 0.00 0.00 0.00 93 1014.9
20260905105805 24 63 3.2 14.5 0.00 0.00 0.00 94 1014.6
20260905105306 23 44 0.0 0.0 0.00 0.00 0.00 94 1013.9
20260905104836 23 44 0.0 0.0 0.00 0.00 0.00 94 1013.8
20260905104317 23 44 0.0 0.0 0.00 0.00 0.00 94 1013.8
20260905103834 23 44 0.0 0.0 0.00 0.00 0.00 94 1013.8
20260905103255 23 44 0.0 0.0 0.00 0.00 0.00 94 1013.8
20260905102805 23 44 0.0 0.0 0.00 0.00 0.00 93 1013.9
20260905102308 23 44 0.0 0.0 0.00 0.00 0.00 93 1013.9
20260905101811 23 44 0.0 0.0 0.00 0.00 0.00 93 1013.8
20260905101312 23 44 0.0 0.0 0.00 0.00 0.00 93 1013.8
20260905100807 23 44 0.0 0.0 0.00 0.00 0.00 93 1013.8
20260905100308 24 44 0.0 0.0 0.00 0.00 0.00 93 1013.7
20260905095835 24 44 0.0 0.0 0.00 0.00 0.00 93 1013.7
20260905095256 24 44 0.0 0.0 0.00 0.00 0.00 93 1013.6
20260905094826 24 44 0.0 0.0 0.00 0.00 0.00 93 1013.6
20260905094309 24 44 0.0 0.0 0.00 0.00 0.00 92 1013.6
20260905093808 24 44 0.0 0.0 0.00 0.00 0.00 92 1013.6
20260905093308 24 44 0.0 0.0 0.00 0.00 0.00 93 1013.6
20260905092756 24 44 0.0 0.0 0.00 0.00 0.00 93 1013.6
20260905092317 24 44 0.0 0.0 0.00 0.00 0.00 93 1013.6
20260905091817 24 44 0.0 0.0 0.00 0.00 0.00 93 1013.6
20260905091259 24 44 0.0 0.0 0.00 0.00 0.00 92 1013.6
20260905090806 24 44 0.0 0.0 0.00 0.00 0.00 93 1013.8
20260905090307 24 44 0.0 0.0 0.00 0.00 0.00 92 1013.8
20260905085807 24 44 0.0 0.0 0.00 0.00 0.00 92 1013.7
20260905085314 24 44 0.0 0.0 0.00 0.00 0.00 92 1013.8
20260905084813 25 44 0.0 0.0 0.00 0.00 0.00 91 1013.7
20260905084315 25 44 0.0 0.0 0.00 0.00 0.00 91 1013.5
20260905083756 25 44 0.0 0.0 0.00 0.00 0.00 92 1013.4
20260905083318 25 44 0.0 0.0 0.00 0.00 0.00 92 1013.4
20260905082818 25 44 0.0 0.0 0.00 0.00 0.00 92 1013.3
20260905082318 25 44 0.0 0.0 0.00 0.00 0.00 92 1013.2
20260905081758 25 44 0.0 0.0 0.00 0.00 0.00 92 1013.1
20260905081320 25 44 0.0 0.0 0.00 0.00 0.00 92 1013.0
20260905080801 25 44 0.0 0.0 0.00 0.00 0.00 91 1013.1
20260905080309 25 44 0.0 0.0 0.00 0.00 0.00 91 1013.1
20260905075810 25 44 0.0 0.0 0.00 0.00 0.00 91 1013.0
20260905075336 25 44 0.0 0.0 0.00 0.00 0.00 92 1013.0
20260905074815 25 44 0.0 0.0 0.00 0.00 0.00 91 1013.0
20260905074316 25 44 0.0 0.0 0.00 0.00 0.00 91 1012.9
20260905073832 25 44 0.0 0.0 0.00 0.00 0.00 91 1012.8